Time,TemperatureF,DewpointF,PressureIn,WindDirection,WindDirectionDegrees,WindSpeedMPH,WindSpeedGustMPH,Humidity,HourlyPrecipIn,Conditions,Clouds,dailyrainin,SolarRadiationWatts/m^2,SoftwareType,DateUTC
2013-01-22 08:25:00,52.7,9.4,29.62,North,1,2.0,2.2,17,-99.99,,,0.00,122.3,rob ver 1B,2013-01-22 15:25:00,
2013-01-22 08:26:00,52.9,9.5,29.62,NNW,342,1.9,2.3,17,-99.99,,,0.00,125.2,rob ver 1B,2013-01-22 15:26:00,
2013-01-22 08:27:00,53.2,9.8,29.62,NNW,348,2.2,2.6,17,-99.99,,,0.00,128.7,rob ver 1B,2013-01-22 15:27:00,
2013-01-22 08:28:00,53.3,10.2,29.62,North,4,2.2,2.6,17,-99.99,,,0.00,131.1,rob ver 1A,2013-01-22 15:28:00,
2013-01-22 08:33:00,55.0,10.3,29.62,North,351,1.5,1.7,16,-99.99,,,0.00,148.9,rob ver 1A,2013-01-22 15:33:00,
2013-01-22 08:38:00,55.9,10.0,29.62,SW,228,0.8,1.3,15,-99.99,,,0.00,163.7,rob ver 1A,2013-01-22 15:38:00,
2013-01-22 08:43:00,54.4,10.2,29.62,WSW,247,2.7,3.1,16,-99.99,,,0.00,178.8,rob ver 1A,2013-01-22 15:43:00,
2013-01-22 08:48:00,53.8,9.6,29.62,WSW,253,2.3,2.9,16,-99.99,,,0.00,193.6,rob ver 1A,2013-01-22 15:48:00,
2013-01-22 08:54:00,53.8,9.7,29.62,West,259,3.6,4.1,16,-99.99,,,0.00,209.7,rob ver 1A,2013-01-22 15:54:00,
2013-01-22 08:59:00,54.0,9.8,29.62,West,280,4.2,4.9,16,-99.99,,,0.00,220.4,rob ver 1A,2013-01-22 15:59:00,
2013-01-22 09:04:00,54.4,10.0,29.62,West,275,4.2,4.7,16,-99.99,,,0.00,236,rob ver 1A,2013-01-22 16:04:00,
2013-01-22 09:09:00,54.6,10.2,29.62,WNW,283,4.8,5.7,16,-99.99,,,0.00,247.2,rob ver 1A,2013-01-22 16:09:00,
2013-01-22 09:14:00,55.2,9.9,29.62,WNW,288,4.3,5.8,16,-99.99,,,0.00,258,rob ver 1A,2013-01-22 16:14:00,
2013-01-22 09:19:00,55.8,9.9,29.65,NW,308,4.5,5.4,15,-99.99,,,0.00,283.9,rob ver 1A,2013-01-22 16:19:00,
2013-01-22 09:24:00,56.2,9.5,29.65,WNW,299,5.9,6.8,15,-99.99,,,0.00,287.8,rob ver 1A,2013-01-22 16:24:00,
2013-01-22 09:30:00,56.6,9.2,29.65,NW,306,6.3,7.6,14,-99.99,,,0.00,298.3,rob ver 1A,2013-01-22 16:30:00,
2013-01-22 09:35:00,56.6,9.5,29.62,NW,306,6.4,7.4,15,-99.99,,,0.00,305.4,rob ver 1A,2013-01-22 16:35:00,
2013-01-22 09:40:00,57.2,10.0,29.65,NW,304,5.4,6.4,15,-99.99,,,0.00,341,rob ver 1A,2013-01-22 16:40:00,
2013-01-22 09:45:00,57.5,9.4,29.62,WNW,285,4.1,5.4,14,-99.99,,,0.00,339.1,rob ver 1A,2013-01-22 16:45:00,
2013-01-22 09:50:00,57.4,10.1,29.65,WNW,289,5.4,6.5,14,-99.99,,,0.00,364,rob ver 1A,2013-01-22 16:50:00,
2013-01-22 09:55:00,57.9,9.5,29.65,WNW,297,4.0,5.0,14,-99.99,,,0.00,376,rob ver 1B,2013-01-22 16:55:00,
2013-01-22 10:00:00,58.4,10.0,29.65,WNW,294,3.2,4.3,14,-99.99,,,0.00,396.2,rob ver 1A,2013-01-22 17:00:00,
2013-01-22 10:06:00,59.1,9.8,29.65,NW,313,3.5,4.9,14,-99.99,,,0.00,408.6,rob ver 1A,2013-01-22 17:06:00,
2013-01-22 10:11:00,60.1,10.1,29.65,WNW,286,2.5,3.3,13,-99.99,,,0.00,424.7,rob ver 1A,2013-01-22 17:11:00,
2013-01-22 10:16:00,60.3,10.3,29.65,WNW,290,2.2,3.1,13,-99.99,,,0.00,433.1,rob ver 1A,2013-01-22 17:16:00,
2013-01-22 10:21:00,60.7,10.4,29.65,WNW,286,2.3,3.1,13,-99.99,,,0.00,446.5,rob ver 1A,2013-01-22 17:21:00,
2013-01-22 10:26:00,62.2,11.0,29.65,WNW,291,1.4,2.0,12,-99.99,,,0.00,458.7,rob ver 1A,2013-01-22 17:26:00,
2013-01-22 10:31:00,62.4,10.6,29.65,West,262,1.8,2.6,12,-99.99,,,0.00,465,rob ver 1A,2013-01-22 17:31:00,
2013-01-22 10:36:00,62.7,10.9,29.65,SW,233,0.6,1.1,12,-99.99,,,0.00,479.6,rob ver 1A,2013-01-22 17:36:00,
2013-01-22 10:41:00,64.1,11.3,29.65,NNW,327,0.9,1.6,12,-99.99,,,0.00,494.6,rob ver 1A,2013-01-22 17:41:00,
2013-01-22 10:46:00,64.7,11.5,29.65,West,261,1.9,2.8,12,-99.99,,,0.00,498.8,rob ver 1A,2013-01-22 17:46:00,
2013-01-22 10:52:00,65.6,11.8,29.65,West,268,1.3,2.4,11,-99.99,,,0.00,516.5,rob ver 1A,2013-01-22 17:52:00,
2013-01-22 10:57:00,64.8,11.2,29.65,NW,306,2.9,3.7,12,-99.99,,,0.00,530.3,rob ver 1A,2013-01-22 17:57:00,
2013-01-22 11:02:00,64.4,11.3,29.65,NW,309,3.9,5.5,12,-99.99,,,0.00,537.8,rob ver 1A,2013-01-22 18:02:00,
2013-01-22 11:07:00,64.9,11.6,29.65,NW,318,3.4,4.3,12,-99.99,,,0.00,545.8,rob ver 1A,2013-01-22 18:07:00,
2013-01-22 11:12:00,65.5,11.0,29.65,NW,319,3.3,4.4,11,-99.99,,,0.00,556.6,rob ver 1A,2013-01-22 18:12:00,
2013-01-22 11:17:00,65.9,11.3,29.65,WNW,283,6.1,7.8,11,-99.99,,,0.00,565.8,rob ver 1A,2013-01-22 18:17:00,
2013-01-22 11:22:00,66.1,11.1,29.65,NW,307,4.6,5.8,11,-99.99,,,0.00,569.9,rob ver 1A,2013-01-22 18:22:00,
2013-01-22 11:27:00,66.1,11.1,29.65,WNW,292,4.5,6.4,11,-99.99,,,0.00,575.6,rob ver 1A,2013-01-22 18:27:00,
2013-01-22 11:32:00,66.4,11.6,29.65,WNW,300,5.0,7.2,11,-99.99,,,0.00,576.9,rob ver 1A,2013-01-22 18:32:00,
2013-01-22 11:38:00,66.8,11.8,29.65,NW,308,7.5,9.1,11,-99.99,,,0.00,595.2,rob ver 1A,2013-01-22 18:38:00,
2013-01-22 11:43:00,67.9,12.1,29.62,NNW,338,4.6,6.6,11,-99.99,,,0.00,601.1,rob ver 1A,2013-01-22 18:43:00,
2013-01-22 11:48:00,67.8,11.9,29.62,NW,317,5.5,7.0,11,-99.99,,,0.00,599.4,rob ver 1A,2013-01-22 18:48:00,
2013-01-22 11:53:00,68.5,12.4,29.62,WNW,296,4.0,5.3,11,-99.99,,,0.00,607.6,rob ver 1A,2013-01-22 18:53:00,
2013-01-22 11:58:00,68.9,12.4,29.62,WNW,299,6.4,9.9,10,-99.99,,,0.00,598.7,rob ver 1A,2013-01-22 18:58:00,
2013-01-22 12:04:00,69.1,12.3,29.62,WNW,284,5.3,6.6,10,-99.99,,,0.00,612.7,rob ver 1A,2013-01-22 19:04:00,
2013-01-22 12:09:00,69.3,12.2,29.62,WNW,296,6.7,9.5,10,-99.99,,,0.00,621.5,rob ver 1A,2013-01-22 19:09:00,
2013-01-22 12:14:00,70.2,12.6,29.62,NW,313,4.8,6.3,10,-99.99,,,0.00,607.9,rob ver 1A,2013-01-22 19:14:00,
2013-01-22 12:19:00,70.8,12.5,29.62,WNW,295,5.6,7.7,10,-99.99,,,0.00,635.1,rob ver 1A,2013-01-22 19:19:00,
2013-01-22 12:24:00,71.0,12.9,29.62,WNW,285,4.5,7.3,10,-99.99,,,0.00,634.7,rob ver 1A,2013-01-22 19:24:00,
2013-01-22 12:29:00,71.0,13.0,29.62,WNW,291,5.8,7.6,10,-99.99,,,0.00,635,rob ver 1B,2013-01-22 19:29:00,
2013-01-22 12:34:00,71.1,12.9,29.62,WNW,295,3.0,4.2,10,-99.99,,,0.00,636,rob ver 1A,2013-01-22 19:34:00,
2013-01-22 12:40:00,70.8,12.6,29.62,West,269,7.5,9.9,10,-99.99,,,0.00,638.1,rob ver 1A,2013-01-22 19:40:00,
2013-01-22 12:45:00,71.5,13.0,29.59,West,269,7.0,8.6,10,-99.99,,,0.00,641.1,rob ver 1A,2013-01-22 19:45:00,
2013-01-22 12:50:00,71.9,13.1,29.59,West,281,6.9,8.9,10,-99.99,,,0.00,640.9,rob ver 1A,2013-01-22 19:50:00,
2013-01-22 12:55:00,72.2,13.1,29.59,West,261,7.0,8.7,10,-99.99,,,0.00,636.9,rob ver 1A,2013-01-22 19:55:00,
2013-01-22 13:00:00,71.9,13.2,29.59,SW,236,5.4,9.8,10,-99.99,,,0.00,642.6,rob ver 1A,2013-01-22 20:00:00,
2013-01-22 13:05:00,72.4,13.3,29.59,WSW,248,6.6,9.5,10,-99.99,,,0.00,638.5,rob ver 1A,2013-01-22 20:05:00,
2013-01-22 13:10:00,72.4,13.2,29.59,WNW,284,2.8,6.0,10,-99.99,,,0.00,631.1,rob ver 1A,2013-01-22 20:10:00,
2013-01-22 13:15:00,72.3,13.2,29.59,WSW,238,4.8,7.0,10,-99.99,,,0.00,625.3,rob ver 1A,2013-01-22 20:15:00,
2013-01-22 13:20:00,72.5,13.5,29.59,WSW,239,5.0,7.1,10,-99.99,,,0.00,625.1,rob ver 1A,2013-01-22 20:20:00,
2013-01-22 13:26:00,73.2,13.7,29.59,West,277,5.6,8.6,10,-99.99,,,0.00,623.7,rob ver 1A,2013-01-22 20:26:00,
2013-01-22 13:31:00,73.4,13.8,29.59,WSW,251,5.0,7.0,10,-99.99,,,0.00,616.8,rob ver 1A,2013-01-22 20:31:00,
2013-01-22 13:36:00,73.9,14.0,29.59,WNW,282,3.4,5.3,9,-99.99,,,0.00,611,rob ver 1A,2013-01-22 20:36:00,
2013-01-22 13:41:00,74.1,14.1,29.59,SW,235,6.0,8.6,10,-99.99,,,0.00,620,rob ver 1A,2013-01-22 20:41:00,
2013-01-22 13:46:00,74.4,14.1,29.59,West,277,8.3,10.6,10,-99.99,,,0.00,613.5,rob ver 1A,2013-01-22 20:46:00,
2013-01-22 13:51:00,74.5,14.1,29.56,West,272,7.2,9.7,9,-99.99,,,0.00,616.9,rob ver 1A,2013-01-22 20:51:00,
2013-01-22 13:57:00,74.2,14.1,29.56,WSW,237,7.2,9.5,9,-99.99,,,0.00,619,rob ver 1A,2013-01-22 20:57:00,
2013-01-22 14:02:00,74.1,13.9,29.56,WSW,241,7.6,10.4,9,-99.99,,,0.00,611.9,rob ver 1A,2013-01-22 21:02:00,
2013-01-22 14:07:00,74.4,13.9,29.56,WSW,258,7.0,9.7,9,-99.99,,,0.00,602.8,rob ver 1A,2013-01-22 21:07:00,
2013-01-22 14:12:00,75.3,14.0,29.56,WSW,243,6.1,9.1,9,-99.99,,,0.00,586.6,rob ver 1A,2013-01-22 21:12:00,
2013-01-22 14:17:00,75.1,14.1,29.56,WNW,287,3.7,5.7,9,-99.99,,,0.00,576.4,rob ver 1A,2013-01-22 21:17:00,
2013-01-22 14:22:00,74.7,14.0,29.56,WSW,243,8.3,12.6,9,-99.99,,,0.00,566.5,rob ver 1A,2013-01-22 21:22:00,
2013-01-22 14:27:00,74.6,13.9,29.56,SW,229,6.0,8.7,9,-99.99,,,0.00,564.1,rob ver 1A,2013-01-22 21:27:00,
2013-01-22 14:31:00,74.7,14.0,29.56,West,269,5.7,8.4,9,-99.99,,,0.00,556.2,rob ver 1A,2013-01-22 21:31:00,
2013-01-22 14:36:00,74.7,14.0,29.56,SW,233,6.8,9.2,9,-99.99,,,0.00,542.6,rob ver 1A,2013-01-22 21:36:00,
2013-01-22 14:42:00,75.4,14.3,29.56,West,266,7.9,10.0,9,-99.99,,,0.00,539.6,rob ver 1A,2013-01-22 21:42:00,
2013-01-22 14:47:00,75.3,14.1,29.56,WNW,282,9.4,11.8,9,-99.99,,,0.00,527.8,rob ver 1A,2013-01-22 21:47:00,
2013-01-22 14:52:00,75.0,14.3,29.56,West,263,9.1,12.0,9,-99.99,,,0.00,520.8,rob ver 1A,2013-01-22 21:52:00,
2013-01-22 14:57:00,74.8,14.2,29.56,WSW,255,8.0,10.6,9,-99.99,,,0.00,504.9,rob ver 1A,2013-01-22 21:57:00,
2013-01-22 15:02:00,75.0,14.5,29.56,West,262,8.7,9.8,9,-99.99,,,0.00,495.9,rob ver 1A,2013-01-22 22:02:00,
2013-01-22 15:07:00,75.1,14.8,29.56,West,274,8.7,10.8,9,-99.99,,,0.00,505.2,rob ver 1A,2013-01-22 22:07:00,
2013-01-22 15:12:00,75.5,14.9,29.56,WSW,252,9.1,11.5,9,-99.99,,,0.00,489.5,rob ver 1A,2013-01-22 22:12:00,
2013-01-22 15:17:00,75.6,14.9,29.53,WSW,258,8.0,9.9,9,-99.99,,,0.00,472.2,rob ver 1A,2013-01-22 22:17:00,
2013-01-22 15:22:00,76.1,14.5,29.53,West,272,9.5,12.2,9,-99.99,,,0.00,455.9,rob ver 1A,2013-01-22 22:22:00,
2013-01-22 15:28:00,76.4,14.6,29.53,West,279,10.6,13.8,9,-99.99,,,0.00,441.9,rob ver 1A,2013-01-22 22:28:00,
2013-01-22 15:33:00,76.4,14.7,29.53,WNW,301,8.6,12.4,9,-99.99,,,0.00,432.4,rob ver 1A,2013-01-22 22:33:00,
2013-01-22 15:38:00,76.3,14.6,29.53,West,267,11.3,15.3,9,-99.99,,,0.00,416,rob ver 1A,2013-01-22 22:38:00,
2013-01-22 15:43:00,76.6,14.5,29.53,West,275,12.1,14.8,9,-99.99,,,0.00,396.5,rob ver 1A,2013-01-22 22:43:00,
2013-01-22 15:48:00,76.7,14.7,29.53,West,265,12.6,15.1,9,-99.99,,,0.00,378.2,rob ver 1A,2013-01-22 22:48:00,
2013-01-22 15:53:00,76.3,14.7,29.53,WSW,255,9.9,12.7,9,-99.99,,,0.00,329.1,rob ver 1A,2013-01-22 22:53:00,
2013-01-22 15:58:00,76.2,14.6,29.53,WSW,254,12.8,14.9,9,-99.99,,,0.00,342.4,rob ver 1A,2013-01-22 22:58:00,
2013-01-22 16:03:00,76.6,14.8,29.53,WSW,247,10.1,12.2,9,-99.99,,,0.00,357.2,rob ver 1A,2013-01-22 23:03:00,
2013-01-22 16:08:00,76.5,14.8,29.53,WSW,237,10.2,12.5,9,-99.99,,,0.00,336,rob ver 1A,2013-01-22 23:08:00,
2013-01-22 16:13:00,76.4,14.8,29.53,WSW,240,11.7,14.0,9,-99.99,,,0.00,335.7,rob ver 1A,2013-01-22 23:13:00,
2013-01-22 16:18:00,76.4,14.8,29.53,WSW,242,12.7,15.4,9,-99.99,,,0.00,322.3,rob ver 1A,2013-01-22 23:18:00,
2013-01-22 16:24:00,76.3,14.9,29.53,WSW,245,11.3,13.7,9,-99.99,,,0.00,306.4,rob ver 1A,2013-01-22 23:24:00,
2013-01-22 16:29:00,76.2,14.8,29.53,WSW,246,11.8,14.8,9,-99.99,,,0.00,285.9,rob ver 1A,2013-01-22 23:29:00,
2013-01-22 16:34:00,76.3,14.8,29.53,WSW,251,12.3,16.1,9,-99.99,,,0.00,262.1,rob ver 1A,2013-01-22 23:34:00,
2013-01-22 16:39:00,76.2,14.9,29.53,WSW,248,12.2,14.9,9,-99.99,,,0.00,234.9,rob ver 1A,2013-01-22 23:39:00,
2013-01-22 16:44:00,75.6,14.7,29.53,WSW,245,11.5,14.0,9,-99.99,,,0.00,107.5,rob ver 1A,2013-01-22 23:44:00,
2013-01-22 16:49:00,75.2,14.6,29.53,West,261,11.1,13.0,9,-99.99,,,0.00,98,rob ver 1A,2013-01-22 23:49:00,
2013-01-22 16:54:00,75.2,14.7,29.53,WSW,252,10.7,12.1,9,-99.99,,,0.00,156.7,rob ver 1A,2013-01-22 23:54:00,
2013-01-22 16:59:00,74.9,14.7,29.53,WSW,255,10.9,13.8,10,-99.99,,,0.00,60.98,rob ver 1A,2013-01-22 23:59:00,
2013-01-22 17:05:00,74.4,14.7,29.53,WSW,258,10.0,12.4,10,-99.99,,,0.00,56.72,rob ver 1A,2013-01-23 00:05:00,
2013-01-22 17:10:00,74.0,14.9,29.53,WSW,254,9.9,12.4,10,-99.99,,,0.00,89.8,rob ver 1A,2013-01-23 00:10:00,
2013-01-22 17:15:00,74.0,15.0,29.56,West,259,9.4,12.0,10,-99.99,,,0.00,113.1,rob ver 1A,2013-01-23 00:15:00,
2013-01-22 17:20:00,73.8,15.0,29.53,West,262,9.4,12.1,10,-99.99,,,0.00,103,rob ver 1A,2013-01-23 00:20:00,
2013-01-22 17:25:00,73.4,14.9,29.53,West,266,9.3,11.3,10,-99.99,,,0.00,112.3,rob ver 1A,2013-01-23 00:25:00,
2013-01-22 17:30:00,73.3,15.0,29.53,West,261,8.2,9.8,10,-99.99,,,0.00,104.3,rob ver 1A,2013-01-23 00:30:00,
2013-01-22 17:35:00,72.9,14.9,29.56,West,269,7.4,8.7,10,-99.99,,,0.00,81.7,rob ver 1A,2013-01-23 00:35:00,
2013-01-22 17:40:00,72.3,15.0,29.56,West,264,9.0,10.7,11,-99.99,,,0.00,31.48,rob ver 1A,2013-01-23 00:40:00,
2013-01-22 17:45:00,71.8,15.2,29.56,West,269,7.9,9.1,11,-99.99,,,0.00,19.84,rob ver 1A,2013-01-23 00:45:00,
2013-01-22 17:51:00,71.2,15.2,29.56,West,268,7.5,9.2,11,-99.99,,,0.00,12.3,rob ver 1A,2013-01-23 00:51:00,
2013-01-22 17:56:00,70.7,15.4,29.56,West,271,7.6,8.6,11,-99.99,,,0.00,5.575,rob ver 1A,2013-01-23 00:56:00,
2013-01-22 18:01:00,70.1,15.5,29.53,West,278,7.8,9.2,12,-99.99,,,0.00,2.46,rob ver 1A,2013-01-23 01:01:00,
2013-01-22 18:06:00,69.8,15.5,29.56,WSW,252,5.9,7.3,12,-99.99,,,0.00,1.64,rob ver 1A,2013-01-23 01:06:00,
2013-01-22 18:11:00,69.8,15.5,29.56,West,262,6.4,8.1,12,-99.99,,,0.00,1.64,rob ver 1A,2013-01-23 01:11:00,
2013-01-22 18:16:00,69.1,15.5,29.56,West,274,7.0,8.1,12,-99.99,,,0.00,.328,rob ver 1A,2013-01-23 01:16:00,
2013-01-22 18:21:00,68.7,15.5,29.56,West,265,6.0,7.0,12,-99.99,,,0.00,0,rob ver 1A,2013-01-23 01:21:00,
2013-01-22 18:26:00,67.9,15.2,29.56,West,275,6.1,7.2,12,-99.99,,,0.00,0,rob ver 1A,2013-01-23 01:26:00,
2013-01-22 18:31:00,67.6,15.3,29.56,West,275,6.0,6.7,13,-99.99,,,0.00,0,rob ver 1A,2013-01-23 01:31:00,
2013-01-22 18:36:00,67.1,15.1,29.56,WNW,284,5.7,6.3,13,-99.99,,,0.00,0,rob ver 1A,2013-01-23 01:36:00,
2013-01-22 18:41:00,66.9,14.5,29.56,WNW,289,5.9,7.2,13,-99.99,,,0.00,0,rob ver 1A,2013-01-23 01:41:00,
2013-01-22 18:47:00,67.0,14.1,29.56,WNW,291,6.1,6.8,12,-99.99,,,0.00,0,rob ver 1A,2013-01-23 01:47:00,
2013-01-22 18:52:00,66.7,13.8,29.56,WNW,287,6.6,7.4,12,-99.99,,,0.00,0,rob ver 1A,2013-01-23 01:52:00,
2013-01-22 18:57:00,66.7,13.7,29.56,WNW,286,6.5,7.2,12,-99.99,,,0.00,0,rob ver 1A,2013-01-23 01:57:00,
2013-01-22 19:02:00,66.4,13.5,29.56,WNW,282,6.1,6.8,12,-99.99,,,0.00,0,rob ver 1A,2013-01-23 02:02:00,
2013-01-22 19:07:00,65.9,13.4,29.56,West,281,5.8,6.4,12,-99.99,,,0.00,0,rob ver 1A,2013-01-23 02:07:00,
2013-01-22 19:12:00,65.6,13.3,29.56,WNW,282,5.5,6.4,12,-99.99,,,0.00,0,rob ver 1A,2013-01-23 02:12:00,
2013-01-22 19:17:00,65.3,13.3,29.56,WNW,290,5.9,6.6,13,-99.99,,,0.00,0,rob ver 1A,2013-01-23 02:17:00,
2013-01-22 19:22:00,65.3,13.2,29.56,WNW,290,6.1,7.3,12,-99.99,,,0.00,0,rob ver 1A,2013-01-23 02:22:00,
2013-01-22 19:28:00,65.5,12.9,29.56,WNW,290,6.7,7.9,12,-99.99,,,0.00,0,rob ver 1A,2013-01-23 02:28:00,
2013-01-22 19:33:00,65.3,12.7,29.56,WNW,291,6.6,7.6,12,-99.99,,,0.00,0,rob ver 1A,2013-01-23 02:33:00,
2013-01-22 19:38:00,65.8,12.5,29.56,WNW,287,9.0,11.2,12,-99.99,,,0.00,0,rob ver 1A,2013-01-23 02:38:00,
2013-01-22 19:43:00,65.9,12.4,29.56,WNW,283,8.9,10.7,12,-99.99,,,0.00,0,rob ver 1A,2013-01-23 02:43:00,
2013-01-22 19:48:00,65.4,12.2,29.56,WNW,283,7.3,8.7,12,-99.99,,,0.00,0,rob ver 1A,2013-01-23 02:48:00,
2013-01-22 19:53:00,65.1,12.0,29.56,West,279,6.8,8.4,12,-99.99,,,0.00,0,rob ver 1A,2013-01-23 02:53:00,
2013-01-22 19:58:00,64.4,11.9,29.56,West,275,6.1,7.7,12,-99.99,,,0.00,0,rob ver 1A,2013-01-23 02:58:00,
2013-01-22 20:03:00,64.4,11.9,29.56,WNW,286,4.7,5.6,12,-99.99,,,0.00,0,rob ver 1A,2013-01-23 03:03:00,
2013-01-22 20:09:00,64.3,11.9,29.56,WNW,297,4.1,5.1,12,-99.99,,,0.00,0,rob ver 1A,2013-01-23 03:09:00,
2013-01-22 20:14:00,64.3,11.8,29.56,WNW,301,4.1,4.6,12,-99.99,,,0.00,0,rob ver 1A,2013-01-23 03:14:00,
2013-01-22 20:19:00,64.3,11.8,29.56,NW,309,5.3,6.0,12,-99.99,,,0.00,0,rob ver 1A,2013-01-23 03:19:00,
2013-01-22 20:24:00,63.8,11.8,29.56,NW,310,5.0,5.6,12,-99.99,,,0.00,0,rob ver 1A,2013-01-23 03:24:00,
2013-01-22 20:29:00,63.3,11.7,29.56,NW,318,5.0,5.6,13,-99.99,,,0.00,0,rob ver 1A,2013-01-23 03:29:00,
2013-01-22 20:34:00,62.8,11.7,29.56,NW,314,4.9,5.1,13,-99.99,,,0.00,0,rob ver 1A,2013-01-23 03:34:00,
2013-01-22 20:39:00,62.4,11.6,29.56,NW,321,3.7,4.3,13,-99.99,,,0.00,0,rob ver 1A,2013-01-23 03:39:00,
2013-01-22 20:44:00,62.6,11.6,29.56,NW,326,4.8,5.9,13,-99.99,,,0.00,0,rob ver 1A,2013-01-23 03:44:00,
2013-01-22 20:49:00,62.3,11.6,29.56,NW,317,5.4,6.4,13,-99.99,,,0.00,0,rob ver 1A,2013-01-23 03:49:00,
2013-01-22 20:54:00,62.7,11.7,29.56,NW,325,7.0,8.6,13,-99.99,,,0.00,0,rob ver 1A,2013-01-23 03:54:00,
2013-01-22 20:59:00,62.9,11.7,29.56,NW,326,6.8,8.2,13,-99.99,,,0.00,0,rob ver 1A,2013-01-23 03:59:00,
2013-01-22 21:05:00,63.0,11.7,29.56,NW,326,6.0,8.1,13,-99.99,,,0.00,0,rob ver 1A,2013-01-23 04:05:00,
2013-01-22 21:10:00,63.0,11.7,29.56,NW,325,6.6,7.8,13,-99.99,,,0.00,0,rob ver 1A,2013-01-23 04:10:00,
2013-01-22 21:15:00,63.2,11.8,29.56,NW,324,5.1,6.4,13,-99.99,,,0.00,0,rob ver 1A,2013-01-23 04:15:00,
2013-01-22 21:20:00,62.6,11.7,29.56,NW,324,4.8,5.5,13,-99.99,,,0.00,0,rob ver 1A,2013-01-23 04:20:00,
2013-01-22 21:25:00,62.5,11.7,29.56,NW,319,5.2,6.0,13,-99.99,,,0.00,0,rob ver 1A,2013-01-23 04:25:00,
2013-01-22 21:30:00,62.5,11.7,29.56,NW,310,5.9,6.7,13,-99.99,,,0.00,0,rob ver 1A,2013-01-23 04:30:00,
2013-01-22 21:35:00,62.7,11.8,29.56,NW,313,6.3,7.0,13,-99.99,,,0.00,0,rob ver 1A,2013-01-23 04:35:00,
2013-01-22 21:40:00,62.6,11.8,29.56,NW,315,7.0,7.9,13,-99.99,,,0.00,0,rob ver 1A,2013-01-23 04:40:00,
2013-01-22 21:45:00,62.5,11.7,29.56,NW,309,6.1,6.8,13,-99.99,,,0.00,0,rob ver 1A,2013-01-23 04:45:00,
2013-01-22 21:50:00,62.6,11.8,29.56,WNW,303,5.2,5.6,13,-99.99,,,0.00,0,rob ver 1A,2013-01-23 04:50:00,
2013-01-22 21:55:00,62.1,11.8,29.56,NW,315,5.1,5.6,13,-99.99,,,0.00,0,rob ver 1A,2013-01-23 04:55:00,
2013-01-22 22:02:00,60.7,11.3,29.59,SSW,211,0.8,1.0,14,-99.99,,,0.00,0,rob ver 1A,2013-01-23 05:02:00,
2013-01-22 22:03:00,60.5,11.3,29.59,South,189,0.6,1.2,14,-99.99,,,0.00,0,rob ver 1A,2013-01-23 05:03:00,
2013-01-22 22:04:00,60.4,11.6,29.59,SE,140,0.9,1.4,14,-99.99,,,0.00,0,rob ver 1A,2013-01-23 05:04:00,
2013-01-22 22:09:00,60.3,12.0,29.56,NNE,16,0.8,0.9,14,-99.99,,,0.00,0,rob ver 1A,2013-01-23 05:09:00,
2013-01-22 22:14:00,60.7,11.5,29.56,ENE,58,0.9,1.5,14,-99.99,,,0.00,0,rob ver 1A,2013-01-23 05:14:00,
2013-01-22 22:19:00,60.9,11.5,29.56,ENE,71,0.7,0.9,14,-99.99,,,0.00,0,rob ver 1A,2013-01-23 05:19:00,
2013-01-22 22:25:00,59.5,12.1,29.59,SE,131,0.6,1.1,15,-99.99,,,0.00,0,rob ver 1A,2013-01-23 05:25:00,
2013-01-22 22:30:00,58.9,12.2,29.56,NW,323,0.5,0.9,15,-99.99,,,0.00,0,rob ver 1A,2013-01-23 05:30:00,
2013-01-22 22:35:00,59.1,12.2,29.59,WSW,250,0.5,1.0,15,-99.99,,,0.00,0,rob ver 1A,2013-01-23 05:35:00,
2013-01-22 22:40:00,59.5,11.9,29.59,WSW,244,0.6,0.9,15,-99.99,,,0.00,0,rob ver 1A,2013-01-23 05:40:00,
2013-01-22 22:45:00,59.0,12.2,29.59,SSW,205,2.1,2.4,15,-99.99,,,0.00,0,rob ver 1A,2013-01-23 05:45:00,
2013-01-22 22:50:00,58.9,12.3,29.59,SSW,199,1.6,1.9,15,-99.99,,,0.00,0,rob ver 1A,2013-01-23 05:50:00,
2013-01-22 22:55:00,56.5,12.5,29.59,SE,144,4.6,5.1,17,-99.99,,,0.00,0,rob ver 1A,2013-01-23 05:55:00,
2013-01-22 23:00:00,55.6,13.1,29.59,SE,130,3.9,4.5,18,-99.99,,,0.00,0,rob ver 1A,2013-01-23 06:00:00,
2013-01-22 23:05:00,55.7,13.2,29.59,SE,142,3.6,4.0,18,-99.99,,,0.00,0,rob ver 1A,2013-01-23 06:05:00,
2013-01-22 23:11:00,55.7,13.3,29.59,SE,140,2.2,2.7,18,-99.99,,,0.00,0,rob ver 1A,2013-01-23 06:11:00,
2013-01-22 23:16:00,56.5,13.4,29.59,ESE,112,1.6,2.0,17,-99.99,,,0.00,0,rob ver 1A,2013-01-23 06:16:00,
2013-01-22 23:21:00,57.1,13.2,29.59,East,99,1.4,1.9,17,-99.99,,,0.00,0,rob ver 1A,2013-01-23 06:21:00,
2013-01-22 23:26:00,57.6,13.0,29.59,NE,47,1.4,2.1,16,-99.99,,,0.00,0,rob ver 1A,2013-01-23 06:26:00,
2013-01-22 23:31:00,58.3,13.1,29.59,North,357,2.2,2.7,16,-99.99,,,0.00,0,rob ver 1A,2013-01-23 06:31:00,
2013-01-22 23:36:00,58.8,12.9,29.59,North,358,3.1,3.4,16,-99.99,,,0.00,0,rob ver 1A,2013-01-23 06:36:00,
2013-01-22 23:41:00,56.5,12.6,29.59,North,0,3.1,3.4,17,-99.99,,,0.00,0,rob ver 1A,2013-01-23 06:41:00,
2013-01-22 23:46:00,55.9,12.6,29.59,North,350,4.0,4.1,17,-99.99,,,0.00,0,rob ver 1A,2013-01-23 06:46:00,
2013-01-22 23:51:00,55.7,12.7,29.59,North,358,4.8,5.4,17,-99.99,,,0.00,0,rob ver 1A,2013-01-23 06:51:00,
2013-01-22 23:56:00,56.2,12.8,29.59,NNW,346,2.9,3.1,17,-99.99,,,0.00,0,rob ver 1A,2013-01-23 06:56:00,